Погода в Дешулане

Россия / Забайкальский край     50°58′39″N   111°46′06″E
темп.,
°C
ветер,
м/с
пор.,
м/с
влажн.,
%
обл.,
%
осадки,
мм/ч
давл.,
гПа
погр.,
м
9 мая, вс
вс900:00+3з224572 0.0 100918
03:00+1зюз22555 0.0 101023
06:000зюз225898 0.0 101124
09:00+6з3647100 0.0 1010810
12:00+11зсз4635100 0.0 10082483
15:00+12сз4631100 0.0 10062539
18:00+10зсз5850100 0.6 10071624
21:00+6юз227065 1.3 100810
10 мая, пн
пн1000:00+3юз2282100 0.0 101014
03:00+2ю1185100 0.0 100911
06:00+3вюв1183100 0.0 100812
09:00+4ссв3387100 1.8 1007290
12:00+4сз1494100 1.4 1008593
15:00+5зсз588595 1.8 1008815
18:00+3з4994100 0.3 1009594
21:00+3зсз41090100 0.4 1011725
11 мая, вт
вт1100:00+3зсз259596 0.3 1011403
03:00+3зюз3594100 0.3 1011267
06:00+2зюз2495100 0.1 1012201
09:00+3з3485100 0.1 1012666
12:00+5зсз3573100 0.0 1012910
15:00+9сз675419 0.1 10101420
18:00+8зсз8105835 0.1 10101329
21:00+6з6116671 0.1 1011775
12 мая, ср
ср1200:00+2зюз38865 0.0 1013185
03:00+1зюз37874 0.0 1013157
06:000зюз35935 0.0 1013108
09:00+6зсз711625 0.0 10111143
12:00+11зсз710342 0.0 10081933
15:00+13зсз7931100 0.0 10062653
18:00+12сз683791 0.0 10062071
21:00+8сз224711 0.0 100710
13 мая, чт
чт1300:00+3зюз1163100 0.0 100912
03:00+4юз1166100 0.0 100912
06:00+2с1165100 0.0 101016
09:00+6сз1241100 0.0 1009656
12:00+9ссз3433100 0.0 10081729
15:00+11с4428100 0.0 10052222
18:00+9ссз4432100 0.0 10062020
21:00+6зюз3438100 0.0 1007110